owner,sensor,date,latitude,longitude,vertical_datum,direction_of_sea_water_velocity,sea_water_speed,upward_sea_water_velocity,qcFlag 
TABS,ioos:station:wmo:42051:1,2006-03-01T00:00:00Z,29.6350,-93.6417,2.0,246.9320108,38.48732908,-99999.0,'11111222,11111222,99999999' 
TABS,ioos:station:wmo:42051:1,2006-03-01T00:30:00Z,29.6350,-93.6417,2.0,245.3611276,34.85316772,-99999.0,'11111222,11111222,99999999' 
TABS,ioos:station:wmo:42051:1,2006-03-01T01:00:00Z,29.6350,-93.6417,2.0,241.8603093,36.30061294,-99999.0,'11111222,11111222,99999999' 
TABS,ioos:station:wmo:42051:1,2006-03-01T01:30:00Z,29.6350,-93.6417,2.0,239.9609901,33.14127638,-99999.0,'11111222,11111222,99999999' 
TABS,ioos:station:wmo:42051:1,2006-03-01T02:00:00Z,29.6350,-93.6417,2.0,236.234102,33.68142515,-99999.0,'11111222,11111222,99999999' 
TABS,ioos:station:wmo:42051:1,2006-03-01T02:30:00Z,29.6350,-93.6417,2.0,243.7080755,33.72923361,-99999.0,'11111222,11111222,99999999' 
TABS,ioos:station:wmo:42051:1,2006-03-01T03:00:00Z,29.6350,-93.6417,2.0,236.1497775,30.82480981,-99999.0,'11111222,11111222,99999999' 
TABS,ioos:station:wmo:42051:1,2006-03-01T03:30:00Z,29.6350,-93.6417,2.0,245.9694608,29.22269837,-99999.0,'11111222,11111222,99999999' 
TABS,ioos:station:wmo:42051:1,2006-03-01T04:00:00Z,29.6350,-93.6417,2.0,245.9895316,34.21007015,-99999.0,'11111222,11111222,99999999' 
TABS,ioos:station:wmo:42051:1,2006-03-01T05:00:00Z,29.6350,-93.6417,2.0,242.8632849,31.39595515,-99999.0,'11111222,11111222,99999999' 
TABS,ioos:station:wmo:42051:1,2006-03-01T06:00:00Z,29.6350,-93.6417,2.0,239.7066164,29.30082593,-99999.0,'11111222,11111222,99999999' 
TABS,ioos:station:wmo:42051:1,2006-03-01T06:30:00Z,29.6350,-93.6417,2.0,237.7175104,31.38054334,-99999.0,'11111222,11111222,99999999' 
TABS,ioos:station:wmo:42051:1,2006-03-01T07:00:00Z,29.6350,-93.6417,2.0,233.1511759,32.11600224,-99999.0,'11111222,11111222,99999999' 
TABS,ioos:station:wmo:42051:1,2006-03-01T07:30:00Z,29.6350,-93.6417,2.0,236.605409,32.23128449,-99999.0,'11111222,11111222,99999999' 
TABS,ioos:station:wmo:42051:1,2006-03-01T08:00:00Z,29.6350,-93.6417,2.0,234.4705475,38.89064798,-99999.0,'11111222,11111222,99999999' 
TABS,ioos:station:wmo:42051:1,2006-03-01T08:30:00Z,29.6350,-93.6417,2.0,237.8764796,43.31054491,-99999.0,'11111222,11111222,99999999' 
TABS,ioos:station:wmo:42051:1,2006-03-01T09:00:00Z,29.6350,-93.6417,2.0,241.0926208,34.69250351,-99999.0,'11111222,11111222,99999999' 
TABS,ioos:station:wmo:42051:1,2006-03-01T09:30:00Z,29.6350,-93.6417,2.0,245.1517999,33.57846036,-99999.0,'11111222,11111222,99999999' 
TABS,ioos:station:wmo:42051:1,2006-03-01T10:00:00Z,29.6350,-93.6417,2.0,248.6941544,34.5406268,-99999.0,'11111222,11111222,99999999' 
TABS,ioos:station:wmo:42051:1,2006-03-01T10:30:00Z,29.6350,-93.6417,2.0,249.5206762,32.18400379,-99999.0,'11111222,11111222,99999999' 
TABS,ioos:station:wmo:42051:1,2006-03-01T11:00:00Z,29.6350,-93.6417,2.0,249.5206762,32.18400379,-99999.0,'11111222,11111222,99999999' 
TABS,ioos:station:wmo:42051:1,2006-03-01T11:30:00Z,29.6350,-93.6417,2.0,264.3338769,30.4889439,-99999.0,'11111222,11111222,99999999' 
TABS,ioos:station:wmo:42051:1,2006-03-01T12:30:00Z,29.6350,-93.6417,2.0,254.7412783,46.85156241,-99999.0,'11111222,11111222,99999999' 
TABS,ioos:station:wmo:42051:1,2006-03-01T13:00:00Z,29.6350,-93.6417,2.0,261.1650766,48.31318661,-99999.0,'11111222,11111222,99999999' 
TABS,ioos:station:wmo:42051:1,2006-03-01T13:30:00Z,29.6350,-93.6417,2.0,261.1277416,50.25121889,-99999.0,'11111222,11111222,99999999' 
TABS,ioos:station:wmo:42051:1,2006-03-01T14:00:00Z,29.6350,-93.6417,2.0,260.4266583,47.68401514,-99999.0,'11111222,11111222,99999999' 
TABS,ioos:station:wmo:42051:1,2006-03-01T14:30:00Z,29.6350,-93.6417,2.0,263.3409903,43.12086386,-99999.0,'11111222,11111222,99999999' 
TABS,ioos:station:wmo:42051:1,2006-03-01T15:00:00Z,29.6350,-93.6417,2.0,263.3001818,41.74504162,-99999.0,'11111222,11111222,99999999' 
TABS,ioos:station:wmo:42051:1,2006-03-01T16:30:00Z,29.6350,-93.6417,2.0,274.0565642,41.56410952,-99999.0,'11111222,11111222,99999999' 
TABS,ioos:station:wmo:42051:1,2006-03-01T17:00:00Z,29.6350,-93.6417,2.0,270.5280925,41.26174984,-99999.0,'11111222,11111222,99999999' 
TABS,ioos:station:wmo:42051:1,2006-03-01T17:30:00Z,29.6350,-93.6417,2.0,276.8870973,41.44904583,-99999.0,'11111222,11111222,99999999' 
TABS,ioos:station:wmo:42051:1,2006-03-01T18:00:00Z,29.6350,-93.6417,2.0,273.8528973,41.67416946,-99999.0,'11111222,11111222,99999999' 
TABS,ioos:station:wmo:42051:1,2006-03-01T18:30:00Z,29.6350,-93.6417,2.0,281.3610161,39.90180447,-99999.0,'11111222,11111222,99999999' 
TABS,ioos:station:wmo:42051:1,2006-03-01T19:30:00Z,29.6350,-93.6417,2.0,271.123465,43.87842864,-99999.0,'11111222,11111222,99999999' 
TABS,ioos:station:wmo:42051:1,2006-03-01T20:00:00Z,29.6350,-93.6417,2.0,272.3598201,44.93809631,-99999.0,'11111222,11111222,99999999' 
TABS,ioos:station:wmo:42051:1,2006-03-01T20:30:00Z,29.6350,-93.6417,2.0,270.8230215,47.36488151,-99999.0,'11111222,11111222,99999999' 
TABS,ioos:station:wmo:42051:1,2006-03-01T21:00:00Z,29.6350,-93.6417,2.0,272.4564651,44.57094345,-99999.0,'11111222,11111222,99999999' 
TABS,ioos:station:wmo:42051:1,2006-03-01T22:00:00Z,29.6350,-93.6417,2.0,271.6527217,43.6981693,-99999.0,'11111222,11111222,99999999' 
TABS,ioos:station:wmo:42051:1,2006-03-01T22:30:00Z,29.6350,-93.6417,2.0,271.8468365,46.55417167,-99999.0,'11111222,11111222,99999999' 
TABS,ioos:station:wmo:42051:1,2006-03-01T23:00:00Z,29.6350,-93.6417,2.0,270.4376856,44.5512974,-99999.0,'11111222,11111222,99999999' 
TABS,ioos:station:wmo:42051:1,2006-03-01T23:30:00Z,29.6350,-93.6417,2.0,262.3917391,42.97832128,-99999.0,'11111222,11111222,99999999' 
TABS,ioos:station:wmo:42051:1,2006-03-02T00:00:00Z,29.6350,-93.6417,2.0,260.6559307,42.86877185,-99999.0,'11111222,11111222,99999999' 
TABS,ioos:station:wmo:42051:1,2006-03-02T00:30:00Z,29.6350,-93.6417,2.0,260.8303715,42.42206973,-99999.0,'11111222,11111222,99999999' 
TABS,ioos:station:wmo:42051:1,2006-03-02T01:00:00Z,29.6350,-93.6417,2.0,254.3899809,41.95750469,-99999.0,'11111222,11111222,99999999' 
TABS,ioos:station:wmo:42051:1,2006-03-02T01:30:00Z,29.6350,-93.6417,2.0,252.7721311,39.16718142,-99999.0,'11111222,11111222,99999999' 
TABS,ioos:station:wmo:42051:1,2006-03-02T02:00:00Z,29.6350,-93.6417,2.0,253.0621588,35.93891067,-99999.0,'11111222,11111222,99999999' 
TABS,ioos:station:wmo:42051:1,2006-03-02T02:30:00Z,29.6350,-93.6417,2.0,248.4363983,35.28984698,-99999.0,'11111222,11111222,99999999' 
TABS,ioos:station:wmo:42051:1,2006-03-02T03:00:00Z,29.6350,-93.6417,2.0,253.7959793,34.43801678,-99999.0,'11111222,11111222,99999999' 
TABS,ioos:station:wmo:42051:1,2006-03-02T03:30:00Z,29.6350,-93.6417,2.0,257.9723942,32.58528809,-99999.0,'11111222,11111222,99999999' 
TABS,ioos:station:wmo:42051:1,2006-03-02T04:00:00Z,29.6350,-93.6417,2.0,254.5530719,32.02682938,-99999.0,'11111222,11111222,99999999' 
TABS,ioos:station:wmo:42051:1,2006-03-02T04:30:00Z,29.6350,-93.6417,2.0,258.7969751,30.36863678,-99999.0,'11111222,11111222,99999999' 
TABS,ioos:station:wmo:42051:1,2006-03-02T05:00:00Z,29.6350,-93.6417,2.0,266.2665136,29.64289628,-99999.0,'11111222,11111222,99999999' 
TABS,ioos:station:wmo:42051:1,2006-03-02T05:30:00Z,29.6350,-93.6417,2.0,267.4398311,29.77971457,-99999.0,'11111222,11111222,99999999' 
TABS,ioos:station:wmo:42051:1,2006-03-02T06:00:00Z,29.6350,-93.6417,2.0,269.9786606,27.39000183,-99999.0,'11111222,11111222,99999999' 
TABS,ioos:station:wmo:42051:1,2006-03-02T08:00:00Z,29.6350,-93.6417,2.0,270.3429348,30.11053802,-99999.0,'11111222,11111222,99999999' 
TABS,ioos:station:wmo:42051:1,2006-03-02T08:30:00Z,29.6350,-93.6417,2.0,268.0037499,29.28776707,-99999.0,'11111222,11111222,99999999' 
TABS,ioos:station:wmo:42051:1,2006-03-02T09:00:00Z,29.6350,-93.6417,2.0,263.1575962,29.37922565,-99999.0,'11111222,11111222,99999999' 
TABS,ioos:station:wmo:42051:1,2006-03-02T09:30:00Z,29.6350,-93.6417,2.0,260.6394102,27.66839352,-99999.0,'11111222,11111222,99999999' 
TABS,ioos:station:wmo:42051:1,2006-03-02T11:00:00Z,29.6350,-93.6417,2.0,249.7418507,29.22791132,-99999.0,'11111222,11111222,99999999' 
TABS,ioos:station:wmo:42051:1,2006-03-02T11:30:00Z,29.6350,-93.6417,2.0,242.4007422,28.75157039,-99999.0,'11111222,11111222,99999999' 
TABS,ioos:station:wmo:42051:1,2006-03-02T12:00:00Z,29.6350,-93.6417,2.0,235.8811109,30.04062915,-99999.0,'11111222,11111222,99999999' 
TABS,ioos:station:wmo:42051:1,2006-03-02T12:30:00Z,29.6350,-93.6417,2.0,227.7179942,28.92493042,-99999.0,'11111222,11111222,99999999' 
TABS,ioos:station:wmo:42051:1,2006-03-02T13:00:00Z,29.6350,-93.6417,2.0,228.3137413,29.96780439,-99999.0,'11111222,11111222,99999999' 
TABS,ioos:station:wmo:42051:1,2006-03-02T13:30:00Z,29.6350,-93.6417,2.0,218.1337971,31.99978906,-99999.0,'11111222,11111222,99999999' 
TABS,ioos:station:wmo:42051:1,2006-03-02T14:00:00Z,29.6350,-93.6417,2.0,218.7079786,33.22910321,-99999.0,'11111222,11111222,99999999' 
TABS,ioos:station:wmo:42051:1,2006-03-02T14:30:00Z,29.6350,-93.6417,2.0,215.7764292,31.76378126,-99999.0,'11111222,11111222,99999999' 
TABS,ioos:station:wmo:42051:1,2006-03-02T15:00:00Z,29.6350,-93.6417,2.0,212.2579322,32.18820902,-99999.0,'11111222,11111222,99999999' 
TABS,ioos:station:wmo:42051:1,2006-03-02T16:00:00Z,29.6350,-93.6417,2.0,217.0127351,32.82410242,-99999.0,'11111222,11111222,99999999' 
TABS,ioos:station:wmo:42051:1,2006-03-02T16:30:00Z,29.6350,-93.6417,2.0,215.9186368,33.01854782,-99999.0,'11111222,11111222,99999999' 
TABS,ioos:station:wmo:42051:1,2006-03-02T17:00:00Z,29.6350,-93.6417,2.0,222.9495301,30.43921812,-99999.0,'11111222,11111222,99999999' 
TABS,ioos:station:wmo:42051:1,2006-03-02T17:30:00Z,29.6350,-93.6417,2.0,225.6292814,30.88828904,-99999.0,'11111222,11111222,99999999' 
TABS,ioos:station:wmo:42051:1,2006-03-02T18:00:00Z,29.6350,-93.6417,2.0,221.8284382,31.44369253,-99999.0,'11111222,11111222,99999999' 
TABS,ioos:station:wmo:42051:1,2006-03-02T18:30:00Z,29.6350,-93.6417,2.0,221.9895395,32.31694292,-99999.0,'11111222,11111222,99999999' 
TABS,ioos:station:wmo:42051:1,2006-03-02T19:00:00Z,29.6350,-93.6417,2.0,228.2803945,31.63122824,-99999.0,'11111222,11111222,99999999' 
TABS,ioos:station:wmo:42051:1,2006-03-02T19:30:00Z,29.6350,-93.6417,2.0,231.3736195,34.4581848,-99999.0,'11111222,11111222,99999999' 
TABS,ioos:station:wmo:42051:1,2006-03-02T20:00:00Z,29.6350,-93.6417,2.0,236.9510483,35.92186242,-99999.0,'11111222,11111222,99999999' 
TABS,ioos:station:wmo:42051:1,2006-03-02T20:30:00Z,29.6350,-93.6417,2.0,245.0249553,36.9003916,-99999.0,'11111222,11111222,99999999' 
TABS,ioos:station:wmo:42051:1,2006-03-02T21:00:00Z,29.6350,-93.6417,2.0,238.9852402,38.79642509,-99999.0,'11111222,11111222,99999999' 
TABS,ioos:station:wmo:42051:1,2006-03-02T22:00:00Z,29.6350,-93.6417,2.0,244.7150016,41.62809148,-99999.0,'11111222,11111222,99999999' 
TABS,ioos:station:wmo:42051:1,2006-03-02T22:30:00Z,29.6350,-93.6417,2.0,241.4953947,41.76236224,-99999.0,'11111222,11111222,99999999' 
TABS,ioos:station:wmo:42051:1,2006-03-02T23:00:00Z,29.6350,-93.6417,2.0,245.5462103,40.05281513,-99999.0,'11111222,11111222,99999999' 
TABS,ioos:station:wmo:42051:1,2006-03-02T23:30:00Z,29.6350,-93.6417,2.0,244.074546,37.2373267,-99999.0,'11111222,11111222,99999999' 
TABS,ioos:station:wmo:42051:1,2006-03-03T00:00:00Z,29.6350,-93.6417,2.0,244.0858097,36.19980663,-99999.0,'11111222,11111222,99999999' 
TABS,ioos:station:wmo:42051:1,2006-03-03T00:30:00Z,29.6350,-93.6417,2.0,244.6967134,36.54621731,-99999.0,'11111222,11111222,99999999' 
TABS,ioos:station:wmo:42051:1,2006-03-03T01:00:00Z,29.6350,-93.6417,2.0,243.5824494,34.65916906,-99999.0,'11111222,11111222,99999999' 
TABS,ioos:station:wmo:42051:1,2006-03-03T01:30:00Z,29.6350,-93.6417,2.0,244.120647,35.85568435,-99999.0,'11111222,11111222,99999999' 
TABS,ioos:station:wmo:42051:1,2006-03-03T02:00:00Z,29.6350,-93.6417,2.0,244.7190305,34.91379384,-99999.0,'11111222,11111222,99999999' 
TABS,ioos:station:wmo:42051:1,2006-03-03T02:30:00Z,29.6350,-93.6417,2.0,241.9669561,33.87412582,-99999.0,'11111222,11111222,99999999' 
TABS,ioos:station:wmo:42051:1,2006-03-03T03:00:00Z,29.6350,-93.6417,2.0,245.603487,32.73265189,-99999.0,'11111222,11111222,99999999' 
TABS,ioos:station:wmo:42051:1,2006-03-03T03:30:00Z,29.6350,-93.6417,2.0,246.1959664,27.10578536,-99999.0,'11111222,11111222,99999999' 
TABS,ioos:station:wmo:42051:1,2006-03-03T04:00:00Z,29.6350,-93.6417,2.0,253.4109713,26.79524025,-99999.0,'11111222,11111222,99999999' 
TABS,ioos:station:wmo:42051:1,2006-03-03T04:30:00Z,29.6350,-93.6417,2.0,253.1573088,26.85178579,-99999.0,'11111222,11111222,99999999' 
TABS,ioos:station:wmo:42051:1,2006-03-03T05:30:00Z,29.6350,-93.6417,2.0,244.4857683,24.86478836,-99999.0,'11111222,11111222,99999999' 
TABS,ioos:station:wmo:42051:1,2006-03-03T06:30:00Z,29.6350,-93.6417,2.0,250.1037132,32.00000312,-99999.0,'11111222,11111222,99999999' 
TABS,ioos:station:wmo:42051:1,2006-03-03T07:00:00Z,29.6350,-93.6417,2.0,248.7532837,35.65332102,-99999.0,'11111222,11111222,99999999' 
TABS,ioos:station:wmo:42051:1,2006-03-03T07:30:00Z,29.6350,-93.6417,2.0,248.7299058,32.41823098,-99999.0,'11111222,11111222,99999999' 
TABS,ioos:station:wmo:42051:1,2006-03-03T08:00:00Z,29.6350,-93.6417,2.0,251.2666559,35.87020072,-99999.0,'11111222,11111222,99999999' 
TABS,ioos:station:wmo:42051:1,2006-03-03T08:30:00Z,29.6350,-93.6417,2.0,252.4902834,35.43162006,-99999.0,'11111222,11111222,99999999' 
TABS,ioos:station:wmo:42051:1,2006-03-03T09:00:00Z,29.6350,-93.6417,2.0,249.9102314,38.22573609,-99999.0,'11111222,11111222,99999999' 
TABS,ioos:station:wmo:42051:1,2006-03-03T09:30:00Z,29.6350,-93.6417,2.0,248.2951923,36.20692889,-99999.0,'11111222,11111222,99999999' 
TABS,ioos:station:wmo:42051:1,2006-03-03T10:30:00Z,29.6350,-93.6417,2.0,245.2866034,41.23674575,-99999.0,'11111222,11111222,99999999' 
TABS,ioos:station:wmo:42051:1,2006-03-03T11:30:00Z,29.6350,-93.6417,2.0,240.4114014,34.93575389,-99999.0,'11111222,11111222,99999999' 
TABS,ioos:station:wmo:42051:1,2006-03-03T12:00:00Z,29.6350,-93.6417,2.0,241.6291295,41.16408629,-99999.0,'11111222,11111222,99999999' 
TABS,ioos:station:wmo:42051:1,2006-03-03T12:30:00Z,29.6350,-93.6417,2.0,237.9836482,51.45653797,-99999.0,'11111222,11111222,99999999' 
TABS,ioos:station:wmo:42051:1,2006-03-03T13:00:00Z,29.6350,-93.6417,2.0,238.830602,52.65040361,-99999.0,'11111222,11111222,99999999' 
TABS,ioos:station:wmo:42051:1,2006-03-03T13:30:00Z,29.6350,-93.6417,2.0,239.3846901,55.21670762,-99999.0,'11111222,11111222,99999999' 
TABS,ioos:station:wmo:42051:1,2006-03-03T14:00:00Z,29.6350,-93.6417,2.0,238.7638892,58.16097059,-99999.0,'11111222,11111222,99999999' 
TABS,ioos:station:wmo:42051:1,2006-03-03T14:30:00Z,29.6350,-93.6417,2.0,239.4200341,57.55450373,-99999.0,'11111222,11111222,99999999' 
TABS,ioos:station:wmo:42051:1,2006-03-03T15:00:00Z,29.6350,-93.6417,2.0,244.9696738,58.2615362,-99999.0,'11111222,11111222,99999999' 
TABS,ioos:station:wmo:42051:1,2006-03-03T15:30:00Z,29.6350,-93.6417,2.0,247.5133944,59.0386221,-99999.0,'11111222,11111222,99999999' 
TABS,ioos:station:wmo:42051:1,2006-03-03T16:00:00Z,29.6350,-93.6417,2.0,251.6352779,51.32380539,-99999.0,'11111222,11111222,99999999' 
TABS,ioos:station:wmo:42051:1,2006-03-03T16:30:00Z,29.6350,-93.6417,2.0,251.1875369,60.53363032,-99999.0,'11111222,11111222,99999999' 
TABS,ioos:station:wmo:42051:1,2006-03-03T17:00:00Z,29.6350,-93.6417,2.0,255.7225016,58.26969882,-99999.0,'11111222,11111222,99999999' 
TABS,ioos:station:wmo:42051:1,2006-03-03T17:30:00Z,29.6350,-93.6417,2.0,259.8908541,55.66410783,-99999.0,'11111222,11111222,99999999' 
TABS,ioos:station:wmo:42051:1,2006-03-03T18:00:00Z,29.6350,-93.6417,2.0,260.3647994,58.43424082,-99999.0,'11111222,11111222,99999999' 
TABS,ioos:station:wmo:42051:1,2006-03-03T18:30:00Z,29.6350,-93.6417,2.0,265.8532251,57.11950455,-99999.0,'11111222,11111222,99999999' 
TABS,ioos:station:wmo:42051:1,2006-03-03T19:00:00Z,29.6350,-93.6417,2.0,267.7769901,52.85976636,-99999.0,'11111222,11111222,99999999' 
TABS,ioos:station:wmo:42051:1,2006-03-03T19:30:00Z,29.6350,-93.6417,2.0,267.6603367,54.14512074,-99999.0,'11111222,11111222,99999999' 
TABS,ioos:station:wmo:42051:1,2006-03-03T20:00:00Z,29.6350,-93.6417,2.0,269.4345516,50.70246542,-99999.0,'11111222,11111222,99999999' 
TABS,ioos:station:wmo:42051:1,2006-03-03T20:30:00Z,29.6350,-93.6417,2.0,269.8011231,49.08029442,-99999.0,'11111222,11111222,99999999' 
TABS,ioos:station:wmo:42051:1,2006-03-03T21:00:00Z,29.6350,-93.6417,2.0,268.8404675,45.47930628,-99999.0,'11111222,11111222,99999999' 
TABS,ioos:station:wmo:42051:1,2006-03-03T22:00:00Z,29.6350,-93.6417,2.0,269.9166621,41.46004342,-99999.0,'11111222,11111222,99999999' 
TABS,ioos:station:wmo:42051:1,2006-03-03T22:30:00Z,29.6350,-93.6417,2.0,272.7151087,42.22738922,-99999.0,'11111222,11111222,99999999' 
TABS,ioos:station:wmo:42051:1,2006-03-03T23:00:00Z,29.6350,-93.6417,2.0,266.2699795,34.74358214,-99999.0,'11111222,11111222,99999999' 
TABS,ioos:station:wmo:42051:1,2006-03-03T23:30:00Z,29.6350,-93.6417,2.0,268.289769,31.50402673,-99999.0,'11111222,11111222,99999999' 
TABS,ioos:station:wmo:42051:1,2006-03-04T00:00:00Z,29.6350,-93.6417,2.0,261.9113873,27.07936853,-99999.0,'11111222,11111222,99999999' 
TABS,ioos:station:wmo:42051:1,2006-03-04T00:30:00Z,29.6350,-93.6417,2.0,262.8383131,27.43400809,-99999.0,'11111222,11111222,99999999' 
TABS,ioos:station:wmo:42051:1,2006-03-04T01:00:00Z,29.6350,-93.6417,2.0,249.0282861,24.86721536,-99999.0,'11111222,11111222,99999999' 
TABS,ioos:station:wmo:42051:1,2006-03-04T01:30:00Z,29.6350,-93.6417,2.0,241.2341649,22.71283778,-99999.0,'11111222,11111222,99999999' 
TABS,ioos:station:wmo:42051:1,2006-03-04T02:00:00Z,29.6350,-93.6417,2.0,232.8397739,24.10430874,-99999.0,'11111222,11111222,99999999' 
TABS,ioos:station:wmo:42051:1,2006-03-04T02:30:00Z,29.6350,-93.6417,2.0,226.3449929,25.90138992,-99999.0,'11111222,11111222,99999999' 
TABS,ioos:station:wmo:42051:1,2006-03-04T03:00:00Z,29.6350,-93.6417,2.0,232.4977245,28.82775399,-99999.0,'11111222,11111222,99999999' 
TABS,ioos:station:wmo:42051:1,2006-03-04T03:30:00Z,29.6350,-93.6417,2.0,226.6370178,30.43923291,-99999.0,'11111222,11111222,99999999' 
TABS,ioos:station:wmo:42051:1,2006-03-04T04:00:00Z,29.6350,-93.6417,2.0,230.5023978,33.55126972,-99999.0,'11111222,11111222,99999999' 
TABS,ioos:station:wmo:42051:1,2006-03-04T04:30:00Z,29.6350,-93.6417,2.0,235.4101608,34.98370478,-99999.0,'11111222,11111222,99999999' 
TABS,ioos:station:wmo:42051:1,2006-03-04T05:00:00Z,29.6350,-93.6417,2.0,238.2613206,37.29749053,-99999.0,'11111222,11111222,99999999' 
TABS,ioos:station:wmo:42051:1,2006-03-04T05:30:00Z,29.6350,-93.6417,2.0,241.4894478,35.57397925,-99999.0,'11111222,11111222,99999999' 
TABS,ioos:station:wmo:42051:1,2006-03-04T06:00:00Z,29.6350,-93.6417,2.0,245.2025861,36.52790714,-99999.0,'11111222,11111222,99999999' 
TABS,ioos:station:wmo:42051:1,2006-03-04T06:30:00Z,29.6350,-93.6417,2.0,248.0633515,40.23286343,-99999.0,'11111222,11111222,99999999' 
TABS,ioos:station:wmo:42051:1,2006-03-04T07:00:00Z,29.6350,-93.6417,2.0,254.4158304,42.65817272,-99999.0,'11111222,11111222,99999999' 
TABS,ioos:station:wmo:42051:1,2006-03-04T07:30:00Z,29.6350,-93.6417,2.0,259.5363198,43.66610241,-99999.0,'11111222,11111222,99999999' 
TABS,ioos:station:wmo:42051:1,2006-03-04T08:00:00Z,29.6350,-93.6417,2.0,261.1929884,43.95823586,-99999.0,'11111222,11111222,99999999' 
TABS,ioos:station:wmo:42051:1,2006-03-04T08:30:00Z,29.6350,-93.6417,2.0,260.4187992,44.52098494,-99999.0,'11111222,11111222,99999999' 
TABS,ioos:station:wmo:42051:1,2006-03-04T09:00:00Z,29.6350,-93.6417,2.0,261.384374,40.58796989,-99999.0,'11111222,11111222,99999999' 
TABS,ioos:station:wmo:42051:1,2006-03-04T09:30:00Z,29.6350,-93.6417,2.0,262.3852148,46.03593053,-99999.0,'11111222,11111222,99999999' 
TABS,ioos:station:wmo:42051:1,2006-03-04T10:00:00Z,29.6350,-93.6417,2.0,262.1821069,55.72791491,-99999.0,'11111222,11111222,99999999' 
TABS,ioos:station:wmo:42051:1,2006-03-04T10:30:00Z,29.6350,-93.6417,2.0,267.9800551,51.36190222,-99999.0,'11111222,11111222,99999999' 
TABS,ioos:station:wmo:42051:1,2006-03-04T11:00:00Z,29.6350,-93.6417,2.0,268.8356372,47.25975137,-99999.0,'11111222,11111222,99999999' 
TABS,ioos:station:wmo:42051:1,2006-03-04T11:30:00Z,29.6350,-93.6417,2.0,271.0871998,44.28796676,-99999.0,'11111222,11111222,99999999' 
TABS,ioos:station:wmo:42051:1,2006-03-04T12:00:00Z,29.6350,-93.6417,2.0,260.4208553,43.68912107,-99999.0,'11111222,11111222,99999999' 
TABS,ioos:station:wmo:42051:1,2006-03-04T12:30:00Z,29.6350,-93.6417,2.0,257.0456553,42.24511569,-99999.0,'11111222,11111222,99999999' 
TABS,ioos:station:wmo:42051:1,2006-03-04T13:00:00Z,29.6350,-93.6417,2.0,257.0028723,40.50769063,-99999.0,'11111222,11111222,99999999' 
TABS,ioos:station:wmo:42051:1,2006-03-04T13:30:00Z,29.6350,-93.6417,2.0,261.978794,45.22238937,-99999.0,'11111222,11111222,99999999' 
TABS,ioos:station:wmo:42051:1,2006-03-04T14:30:00Z,29.6350,-93.6417,2.0,260.1086166,38.01504176,-99999.0,'11111222,11111222,99999999' 
TABS,ioos:station:wmo:42051:1,2006-03-04T15:00:00Z,29.6350,-93.6417,2.0,259.1819492,40.17391193,-99999.0,'11111222,11111222,99999999' 
TABS,ioos:station:wmo:42051:1,2006-03-04T15:30:00Z,29.6350,-93.6417,2.0,260.0400157,39.77947712,-99999.0,'11111222,11111222,99999999' 
TABS,ioos:station:wmo:42051:1,2006-03-04T16:30:00Z,29.6350,-93.6417,2.0,256.0294364,37.85983624,-99999.0,'11111222,11111222,99999999' 
TABS,ioos:station:wmo:42051:1,2006-03-04T17:00:00Z,29.6350,-93.6417,2.0,256.0643574,39.90444837,-99999.0,'11111222,11111222,99999999' 
TABS,ioos:station:wmo:42051:1,2006-03-04T18:30:00Z,29.6350,-93.6417,2.0,262.0723498,44.73751222,-99999.0,'11111222,11111222,99999999' 
TABS,ioos:station:wmo:42051:1,2006-03-04T19:00:00Z,29.6350,-93.6417,2.0,258.6846965,45.15770145,-99999.0,'11111222,11111222,99999999' 
TABS,ioos:station:wmo:42051:1,2006-03-04T19:30:00Z,29.6350,-93.6417,2.0,264.5193009,40.10330784,-99999.0,'11111222,11111222,99999999' 
TABS,ioos:station:wmo:42051:1,2006-03-04T20:00:00Z,29.6350,-93.6417,2.0,267.7959005,40.5700037,-99999.0,'11111222,11111222,99999999' 
TABS,ioos:station:wmo:42051:1,2006-03-04T20:30:00Z,29.6350,-93.6417,2.0,272.612437,41.25286051,-99999.0,'11111222,11111222,99999999' 
TABS,ioos:station:wmo:42051:1,2006-03-04T21:00:00Z,29.6350,-93.6417,2.0,273.4756979,44.21130285,-99999.0,'11111222,11111222,99999999' 
TABS,ioos:station:wmo:42051:1,2006-03-04T21:30:00Z,29.6350,-93.6417,2.0,273.0563966,41.82948482,-99999.0,'11111222,11111222,99999999' 
TABS,ioos:station:wmo:42051:1,2006-03-04T22:00:00Z,29.6350,-93.6417,2.0,275.5627413,42.29917257,-99999.0,'11111222,11111222,99999999' 
TABS,ioos:station:wmo:42051:1,2006-03-04T22:30:00Z,29.6350,-93.6417,2.0,274.1632859,38.57176299,-99999.0,'11111222,11111222,99999999' 
TABS,ioos:station:wmo:42051:1,2006-03-04T23:00:00Z,29.6350,-93.6417,2.0,275.4880319,37.33109294,-99999.0,'11111222,11111222,99999999' 
TABS,ioos:station:wmo:42051:1,2006-03-04T23:30:00Z,29.6350,-93.6417,2.0,271.6251584,34.5638959,-99999.0,'11111222,11111222,99999999' 
TABS,ioos:station:wmo:42051:1,2006-03-05T00:00:00Z,29.6350,-93.6417,2.0,275.6501187,29.9655619,-99999.0,'11111222,11111222,99999999' 
TABS,ioos:station:wmo:42051:1,2006-03-05T00:30:00Z,29.6350,-93.6417,2.0,269.4925512,28.25110617,-99999.0,'11111222,11111222,99999999' 
TABS,ioos:station:wmo:42051:1,2006-03-05T01:00:00Z,29.6350,-93.6417,2.0,272.5837251,29.73021359,-99999.0,'11111222,11111222,99999999' 
TABS,ioos:station:wmo:42051:1,2006-03-05T01:30:00Z,29.6350,-93.6417,2.0,267.7052325,24.47962418,-99999.0,'11111222,11111222,99999999' 
TABS,ioos:station:wmo:42051:1,2006-03-05T02:00:00Z,29.6350,-93.6417,2.0,269.5921693,26.72067552,-99999.0,'11111222,11111222,99999999' 
TABS,ioos:station:wmo:42051:1,2006-03-05T02:30:00Z,29.6350,-93.6417,2.0,257.8067009,22.01665052,-99999.0,'11111222,11111222,99999999' 
TABS,ioos:station:wmo:42051:1,2006-03-05T03:30:00Z,29.6350,-93.6417,2.0,264.7242797,18.59877684,-99999.0,'11111222,11111222,99999999' 